When you browse on this site, cookies collect data to enhance your experience and personalize the content and advertising you see.
Visit our Privacy Policy to learn more. By continuing to use the site, you agree to this use of cookies and data.
  • In Switzerland
  • List of Countries
  • For 7 days
  • Water Temperature
  • Weather Map
  • Weather Widgets
  • user-avatar
    Login

    Hourly Weather Bregenz

    Today, 22 November, Friday

    Time Temperature Precipitation Wind Pressure Humidity
    00:00 -5°C° 0 mm 2 mps 638 mmHg 81%
    01:00 -5°C° 0 mm 2 mps 639 mmHg 82%
    02:00 -5°C° 0 mm 2 mps 638 mmHg 82%
    03:00 -5°C° 0 mm 2 mps 638 mmHg 82%
    04:00 -4°C° 0 mm 2 mps 638 mmHg 81%
    05:00 -4°C° 0 mm 2 mps 638 mmHg 82%
    06:00 -4°C° 0 mm 2 mps 639 mmHg 82%
    07:00 -4°C° 0 mm 2 mps 639 mmHg 81%
    08:00 -3°C° 0 mm 2 mps 639 mmHg 80%
    09:00 0°C° 0 mm 1 mps 639 mmHg 78%
    10:00 +1°C° 0 mm 1 mps 639 mmHg 76%
    11:00 +2°C° 0 mm 1 mps 639 mmHg 75%
    12:00 +3°C° 0 mm 1 mps 639 mmHg 74%
    13:00 +3°C° 0 mm 2 mps 640 mmHg 73%
    14:00 +2°C° 0 mm 2 mps 639 mmHg 76%
    15:00 +2°C° 0 mm 2 mps 638 mmHg 80%
    16:00 +1°C° 0 mm 2 mps 637 mmHg 83%
    17:00 -1°C° 0 mm 2 mps 637 mmHg 83%
    18:00 -2°C° 0 mm 2 mps 637 mmHg 83%
    19:00 -4°C° 0 mm 3 mps 637 mmHg 84%
    20:00 -2°C° 0 mm 3 mps 637 mmHg 83%
    21:00 -2°C° 0 mm 3 mps 637 mmHg 82%
    22:00 -2°C° 0 mm 3 mps 636 mmHg 81%
    23:00 -2°C° 0 mm 3 mps 636 mmHg 80%

    Tomorrow, 23 November, Saturday

    Time Temperature Precipitation Wind Pressure Humidity
    00:00 -2°C° 0 mm 3 mps 636 mmHg 79%
    01:00 -2°C° 0 mm 4 mps 636 mmHg 78%
    02:00 -2°C° 0 mm 4 mps 635 mmHg 78%
    03:00 -1°C° 0 mm 3 mps 635 mmHg 78%
    04:00 -1°C° 0 mm 3 mps 635 mmHg 78%
    05:00 -2°C° 0 mm 4 mps 634 mmHg 78%
    06:00 -2°C° 0 mm 4 mps 634 mmHg 78%
    07:00 -3°C° 0 mm 4 mps 634 mmHg 78%
    08:00 -1°C° 0 mm 4 mps 634 mmHg 76%
    09:00 0°C° 0 mm 4 mps 634 mmHg 75%
    10:00 +1°C° 0 mm 4 mps 634 mmHg 73%
    11:00 +3°C° 0 mm 3 mps 634 mmHg 73%
    12:00 +4°C° 0 mm 3 mps 635 mmHg 73%
    13:00 +5°C° 0 mm 3 mps 635 mmHg 73%
    14:00 +4°C° 0 mm 3 mps 635 mmHg 75%
    15:00 +4°C° 0 mm 3 mps 634 mmHg 78%
    16:00 +3°C° 0 mm 3 mps 634 mmHg 80%
    17:00 +2°C° 0 mm 3 mps 634 mmHg 80%
    18:00 +2°C° 0 mm 3 mps 634 mmHg 80%
    19:00 +1°C° 0 mm 3 mps 635 mmHg 79%
    20:00 +1°C° 0 mm 3 mps 635 mmHg 79%
    21:00 +1°C° 0 mm 3 mps 635 mmHg 79%
    22:00 0°C° 0 mm 3 mps 635 mmHg 78%
    23:00 0°C° 0 mm 3 mps 635 mmHg 79%

    Day after tomorrow, 24 November, Sunday

    Time Temperature Precipitation Wind Pressure Humidity
    00:00 0°C° 0 mm 3 mps 635 mmHg 79%
    01:00 +1°C° 0 mm 2 mps 636 mmHg 79%
    02:00 +1°C° 0 mm 2 mps 636 mmHg 80%
    03:00 +1°C° 0 mm 2 mps 636 mmHg 80%
    04:00 +1°C° 0 mm 2 mps 636 mmHg 81%
    05:00 +1°C° 0 mm 2 mps 636 mmHg 82%
    06:00 +1°C° 0 mm 2 mps 637 mmHg 83%
    07:00 +1°C° 0 mm 2 mps 637 mmHg 84%
    08:00 +2°C° 0 mm 2 mps 638 mmHg 82%
    09:00 +2°C° 0 mm 2 mps 638 mmHg 81%
    10:00 +3°C° 0 mm 2 mps 639 mmHg 79%
    11:00 +5°C° 0 mm 1 mps 639 mmHg 78%
    12:00 +6°C° 0 mm 1 mps 640 mmHg 77%
    13:00 +7°C° 0 mm 1 mps 640 mmHg 76%
    14:00 +6°C° 0 mm 1 mps 640 mmHg 80%
    15:00 +5°C° 0 mm 1 mps 640 mmHg 84%
    16:00 +4°C° 0 mm 1 mps 639 mmHg 89%
    17:00 +3°C° 0 mm 1 mps 640 mmHg 88%
    18:00 +2°C° 0 mm 1 mps 640 mmHg 88%
    19:00 +2°C° 0 mm 1 mps 640 mmHg 88%
    20:00 +1°C° 0 mm 1 mps 640 mmHg 88%
    21:00 +1°C° 0 mm 1 mps 640 mmHg 87%
    22:00 +1°C° 0 mm 1 mps 640 mmHg 86%
    23:00 +1°C° 0 mm 1 mps 640 mmHg 86%

    25 November, Monday

    Time Temperature Precipitation Wind Pressure Humidity
    00:00 +1°C° 0 mm 1 mps 640 mmHg 86%
    01:00 0°C° 0 mm 1 mps 640 mmHg 85%
    02:00 0°C° 0 mm 1 mps 640 mmHg 86%
    03:00 0°C° 0 mm 1 mps 640 mmHg 86%
    04:00 0°C° 0 mm 1 mps 640 mmHg 86%
    05:00 0°C° 0 mm 1 mps 640 mmHg 85%
    06:00 0°C° 0 mm 1 mps 640 mmHg 85%
    07:00 0°C° 0 mm 1 mps 640 mmHg 84%
    08:00 +1°C° 0 mm 1 mps 640 mmHg 83%
    09:00 +2°C° 0 mm 1 mps 640 mmHg 81%
    10:00 +3°C° 0 mm 1 mps 640 mmHg 79%
    11:00 +4°C° 0 mm 1 mps 640 mmHg 78%
    12:00 +4°C° 0 mm 0 mps 641 mmHg 77%
    13:00 +5°C° 0 mm 0 mps 641 mmHg 76%
    14:00 +4°C° 0 mm 0 mps 640 mmHg 81%
    15:00 +3°C° 0 mm 0 mps 640 mmHg 85%
    16:00 +2°C° 0 mm 0 mps 640 mmHg 90%
    17:00 +2°C° 0 mm 0 mps 640 mmHg 90%
    18:00 +2°C° 0 mm 1 mps 640 mmHg 90%
    19:00 +2°C° 0 mm 1 mps 640 mmHg 89%
    20:00 +2°C° 0 mm 1 mps 640 mmHg 88%
    21:00 +2°C° 0 mm 1 mps 640 mmHg 86%
    22:00 +2°C° 0 mm 1 mps 640 mmHg 84%
    23:00 +3°C° 0 mm 1 mps 640 mmHg 83%

    26 November, Tuesday

    Time Temperature Precipitation Wind Pressure Humidity
    00:00 +3°C° 0 mm 1 mps 640 mmHg 83%
    01:00 +3°C° 0 mm 1 mps 640 mmHg 82%
    02:00 +3°C° 0.1 mm 1 mps 640 mmHg 84%
    03:00 +3°C° 0.1 mm 1 mps 640 mmHg 86%
    04:00 +2°C° 0.1 mm 0 mps 640 mmHg 88%
    05:00 +2°C° 0.4 mm 0 mps 640 mmHg 90%
    06:00 +3°C° 0.4 mm 1 mps 640 mmHg 92%
    07:00 +2°C° 0.4 mm 1 mps 641 mmHg 94%
    08:00 +3°C° 0.3 mm 1 mps 641 mmHg 94%
    09:00 +3°C° 0.3 mm 1 mps 641 mmHg 93%
    10:00 +3°C° 0.3 mm 1 mps 641 mmHg 92%
    11:00 +3°C° 0 mm 1 mps 641 mmHg 90%
    12:00 +3°C° 0 mm 0 mps 641 mmHg 88%
    13:00 +3°C° 0 mm 0 mps 640 mmHg 87%
    14:00 +4°C° 0 mm 1 mps 640 mmHg 88%
    15:00 +3°C° 0 mm 1 mps 640 mmHg 88%
    16:00 +3°C° 0 mm 1 mps 639 mmHg 89%
    17:00 +2°C° 0 mm 1 mps 639 mmHg 89%
    18:00 +1°C° 0 mm 2 mps 639 mmHg 88%
    19:00 -1°C° 0 mm 2 mps 639 mmHg 88%
    20:00 -1°C° 0 mm 2 mps 638 mmHg 86%
    21:00 -1°C° 0 mm 2 mps 638 mmHg 85%
    22:00 -1°C° 0 mm 2 mps 638 mmHg 83%
    23:00 -1°C° 0 mm 2 mps 637 mmHg 83%

    27 November, Wednesday

    Time Temperature Precipitation Wind Pressure Humidity
    00:00 -1°C° 0 mm 2 mps 637 mmHg 83%
    01:00 -1°C° 0 mm 2 mps 637 mmHg 82%
    02:00 -1°C° 0 mm 2 mps 636 mmHg 82%
    03:00 +1°C° 0 mm 2 mps 636 mmHg 82%
    04:00 +1°C° 0 mm 2 mps 636 mmHg 81%
    05:00 +1°C° 0.1 mm 2 mps 636 mmHg 82%
    06:00 +1°C° 0.1 mm 2 mps 636 mmHg 83%
    07:00 +1°C° 0.1 mm 2 mps 636 mmHg 83%
    08:00 +2°C° 0.2 mm 2 mps 636 mmHg 83%
    09:00 +3°C° 0.2 mm 2 mps 636 mmHg 82%
    10:00 +3°C° 0.2 mm 2 mps 636 mmHg 82%
    11:00 +4°C° 0.3 mm 2 mps 636 mmHg 82%
    12:00 +4°C° 0.3 mm 2 mps 636 mmHg 82%
    13:00 +5°C° 0.3 mm 2 mps 636 mmHg 83%
    14:00 +4°C° 0.1 mm 2 mps 636 mmHg 84%
    15:00 +4°C° 0.1 mm 2 mps 636 mmHg 85%
    16:00 +4°C° 0.1 mm 2 mps 636 mmHg 86%
    17:00 +3°C° 0 mm 2 mps 636 mmHg 87%
    18:00 +2°C° 0 mm 2 mps 636 mmHg 87%
    19:00 +2°C° 0 mm 2 mps 636 mmHg 88%
    20:00 +2°C° 0.1 mm 2 mps 637 mmHg 89%
    21:00 +2°C° 0.1 mm 2 mps 637 mmHg 90%
    22:00 +2°C° 0.1 mm 2 mps 637 mmHg 91%
    23:00 +2°C° 0.3 mm 2 mps 637 mmHg 91%
    Show more